This is the latest recevied weather packets stored in our database for station/object KC3SOZ. If no packets are shown the sender has not sent any weather packets the latest 10 day(s).
| Time | Temp. | Humidity | Pressure | Rain* | Wind** | Luminosity | Snow |
|---|---|---|---|---|---|---|---|
| 1778195095 | 15.56° C | 45% | 1008.7 hPa | 0 mm | - | 44 W/m² | - |
| 1778194790 | 15.56° C | 48% | 1008.8 hPa | 0 mm | - | 78 W/m² | - |
| 1778194487 | 15.56° C | 46% | 1008.5 hPa | 0 mm | - | 68 W/m² | - |
| 1778194183 | 15.56° C | 44% | 1008.7 hPa | 0 mm | - | 79 W/m² | - |
| 1778193879 | 15.56° C | 46% | 1008.9 hPa | 0 mm | - | 79 W/m² | - |
| 1778193576 | 15.56° C | 44% | 1008.8 hPa | 0 mm | - | 86 W/m² | - |
| 1778193272 | 15.56° C | 48% | 1008.7 hPa | 0 mm | - | 83 W/m² | - |
| 1778192969 | 15.56° C | 45% | 1008.8 hPa | 0 mm | - | 79 W/m² | - |
| 1778192666 | 15.56° C | 45% | 1008.8 hPa | 0 mm | - | 79 W/m² | - |
| 1778192362 | 15.56° C | 48% | 1008.7 hPa | 0 mm | - | 100 W/m² | - |
| 1778192059 | 15.56° C | 46% | 1008.9 hPa | 0 mm | - | 108 W/m² | - |
| 1778191755 | 15.56° C | 47% | 1008.7 hPa | 0 mm | - | 117 W/m² | - |
| 1778191453 | 15.56° C | 45% | 1008.9 hPa | 0 mm | - | 112 W/m² | - |
| 1778191149 | 16.67° C | 46% | 1008.9 hPa | 0 mm | - | 128 W/m² | - |
| 1778190846 | 16.67° C | 45% | 1008.9 hPa | 0 mm | - | 142 W/m² | - |
| 1778190543 | 16.67° C | 43% | 1008.8 hPa | 0 mm | - | 368 W/m² | - |
| 1778190241 | 16.67° C | 44% | 1008.9 hPa | 0 mm | - | 386 W/m² | - |
| 1778189936 | 16.67° C | 45% | 1008.9 hPa | 0 mm | - | 171 W/m² | - |
| 1778189633 | 17.22° C | 43% | 1008.9 hPa | 0 mm | - | 391 W/m² | - |
| 1778189330 | 17.22° C | 42% | 1008.8 hPa | 0 mm | - | 429 W/m² | - |
| 1778189026 | 17.78° C | 41% | 1009.3 hPa | 0 mm | - | 490 W/m² | - |
| 1778188723 | 16.67° C | 42% | 1009 hPa | 0 mm | - | 508 W/m² | - |
| 1778188419 | 16.67° C | 43% | 1008.7 hPa | 0 mm | - | 483 W/m² | - |
| 1778188117 | 16.11° C | 49% | 1009.1 hPa | 0 mm | - | 283 W/m² | - |
| 1778187813 | 16.67° C | 42% | 1009.1 hPa | 0 mm | - | 190 W/m² | - |
* Rain latest hour (hover to see other rain measurements)
** Current wind speed in m/s (hover to see current wind gust speed)